| time (UTC) | temp F | wind direction | speed knots | gust knots | rain 1hr in | rain 24hr in | rain mn in | humidity % | barometer mb |
| 20260504194658 | 73 | 170 | 6.1 | 13.0 | 0.00 | 0.00 | 0.00 | 34 | 1011.2 |
| 20260504194154 | 74 | 132 | 2.6 | 19.1 | 0.00 | 0.00 | 0.00 | 34 | 1011.4 |
| 20260504193651 | 74 | 295 | 1.7 | 11.3 | 0.00 | 0.00 | 0.00 | 34 | 1011.5 |
| 20260504193149 | 74 | 207 | 2.6 | 12.2 | 0.00 | 0.00 | 0.00 | 34 | 1011.3 |
| 20260504192646 | 75 | 288 | 3.5 | 9.6 | 0.00 | 0.00 | 0.00 | 34 | 1011.5 |
| 20260504192144 | 74 | 218 | 4.3 | 8.7 | 0.00 | 0.00 | 0.00 | 35 | 1011.5 |
| 20260504191642 | 74 | 222 | 3.5 | 10.4 | 0.00 | 0.00 | 0.00 | 34 | 1011.5 |
| 20260504191138 | 74 | 272 | 2.6 | 9.6 | 0.00 | 0.00 | 0.00 | 34 | 1011.7 |
| 20260504190634 | 75 | 245 | 5.2 | 8.7 | 0.00 | 0.00 | 0.00 | 33 | 1011.7 |
| 20260504190131 | 74 | 273 | 4.3 | 10.4 | 0.00 | 0.00 | 0.00 | 34 | 1011.7 |
| 20260504185627 | 74 | 252 | 5.2 | 12.2 | 0.00 | 0.00 | 0.00 | 33 | 1011.7 |
| 20260504185124 | 73 | 100 | 0.0 | 11.3 | 0.00 | 0.00 | 0.00 | 34 | 1011.9 |
| 20260504184620 | 72 | 300 | 4.3 | 14.8 | 0.00 | 0.00 | 0.00 | 34 | 1012.0 |
| 20260504184115 | 72 | 278 | 9.6 | 15.6 | 0.00 | 0.00 | 0.00 | 34 | 1012.2 |
| 20260504183613 | 72 | 283 | 5.2 | 13.9 | 0.00 | 0.00 | 0.00 | 34 | 1012.3 |
| 20260504183111 | 72 | 287 | 3.5 | 13.9 | 0.00 | 0.00 | 0.00 | 34 | 1012.2 |
| 20260504182608 | 72 | 258 | 2.6 | 13.9 | 0.00 | 0.00 | 0.00 | 34 | 1012.1 |
| 20260504182105 | 73 | 310 | 7.8 | 14.8 | 0.00 | 0.00 | 0.00 | 34 | 1012.2 |
| 20260504181602 | 73 | 277 | 6.1 | 9.6 | 0.00 | 0.00 | 0.00 | 34 | 1012.2 |
| 20260504181100 | 71 | 309 | 6.1 | 12.2 | 0.00 | 0.00 | 0.00 | 35 | 1012.4 |
| 20260504180558 | 72 | 282 | 6.1 | 14.8 | 0.00 | 0.00 | 0.00 | 35 | 1012.5 |
| 20260504180057 | 72 | 288 | 10.4 | 14.8 | 0.00 | 0.00 | 0.00 | 35 | 1012.5 |
| 20260504175554 | 70 | 294 | 5.2 | 18.2 | 0.00 | 0.00 | 0.00 | 37 | 1012.7 |
| 20260504175051 | 71 | 296 | 6.1 | 10.4 | 0.00 | 0.00 | 0.00 | 38 | 1012.7 |
| 20260504174549 | 71 | 241 | 9.6 | 13.0 | 0.00 | 0.00 | 0.00 | 38 | 1012.8 |
| 20260504174045 | 71 | 225 | 2.6 | 13.0 | 0.00 | 0.00 | 0.00 | 37 | 1012.8 |
| 20260504173542 | 72 | 178 | 4.3 | 14.8 | 0.00 | 0.00 | 0.00 | 37 | 1012.7 |
| 20260504173040 | 72 | 276 | 4.3 | 8.7 | 0.00 | 0.00 | 0.00 | 36 | 1012.6 |
| 20260504172536 | 70 | 307 | 7.0 | 17.4 | 0.00 | 0.00 | 0.00 | 36 | 1012.7 |
| 20260504172032 | 69 | 306 | 10.4 | 15.6 | 0.00 | 0.00 | 0.00 | 37 | 1012.8 |
| 20260504171529 | 70 | 262 | 7.0 | 14.8 | 0.00 | 0.00 | 0.00 | 36 | 1012.8 |
| 20260504171026 | 70 | 278 | 4.3 | 14.8 | 0.00 | 0.00 | 0.00 | 37 | 1013.1 |
| 20260504170522 | 69 | 338 | 0.9 | 13.0 | 0.00 | 0.00 | 0.00 | 37 | 1013.2 |
| 20260504160443 | 68 | 289 | 2.6 | 17.4 | 0.00 | 0.00 | 0.00 | 36 | 1013.8 |
| 20260504150906 | 67 | 258 | 4.3 | 7.8 | 0.00 | 0.00 | 0.00 | 39 | 1014.6 |
| 20260504150403 | 66 | 46 | 1.7 | 13.9 | 0.00 | 0.00 | 0.00 | 40 | 1014.6 |
| 20260504141333 | 66 | 265 | 4.3 | 10.4 | 0.00 | 0.00 | 0.00 | 45 | 1014.8 |
| 20260504140829 | 65 | 277 | 4.3 | 7.8 | 0.00 | 0.00 | 0.00 | 46 | 1014.7 |
| 20260504140325 | 63 | 277 | 10.4 | 12.2 | 0.00 | 0.00 | 0.00 | 46 | 1014.8 |
| 20260504130754 | 60 | 284 | 4.3 | 11.3 | 0.00 | 0.00 | 0.00 | 51 | 1015.2 |
| 20260504130250 | 60 | 297 | 15.6 | 15.6 | 0.00 | 0.00 | 0.00 | 51 | 1015.4 |
| 20260504120214 | 56 | 267 | 6.1 | 11.3 | 0.00 | 0.00 | 0.00 | 59 | 1015.8 |
| 20260504110641 | 51 | 287 | 4.3 | 12.2 | 0.00 | 0.00 | 0.00 | 62 | 1015.9 |
| 20260504110137 | 51 | 254 | 7.8 | 7.8 | 0.00 | 0.00 | 0.00 | 63 | 1015.9 |
| 20260504100603 | 51 | 304 | 2.6 | 5.2 | 0.00 | 0.00 | 0.00 | 56 | 1015.4 |
| 20260504081957 | 50 | 291 | 1.7 | 7.8 | 0.00 | 0.00 | 0.00 | 58 | 1015.1 |
| 20260504081454 | 51 | 265 | 4.3 | 4.3 | 0.00 | 0.00 | 0.00 | 58 | 1015.0 |
| 20260504080949 | 51 | 340 | 0.9 | 7.8 | 0.00 | 0.00 | 0.00 | 57 | 1015.1 |
| 20260504080446 | 51 | 294 | 3.5 | 4.3 | 0.00 | 0.00 | 0.00 | 57 | 1015.2 |
| 20260504050259 | 53 | 255 | 3.5 | 8.7 | 0.00 | 0.00 | 0.00 | 48 | 1014.6 |
| 20260504045756 | 54 | 281 | 1.7 | 8.7 | 0.00 | 0.00 | 0.00 | 48 | 1014.3 |
| 20260504045251 | 54 | 294 | 6.1 | 8.7 | 0.00 | 0.00 | 0.00 | 47 | 1014.5 |
| 20260504044749 | 54 | 290 | 7.0 | 11.3 | 0.00 | 0.00 | 0.00 | 46 | 1014.5 |
| 20260504044246 | 54 | 259 | 2.6 | 10.4 | 0.00 | 0.00 | 0.00 | 47 | 1014.4 |
| 20260504043743 | 54 | 332 | 2.6 | 6.1 | 0.00 | 0.00 | 0.00 | 47 | 1014.4 |
| 20260504043240 | 54 | 269 | 0.0 | 11.3 | 0.00 | 0.00 | 0.00 | 47 | 1014.4 |
| 20260504042738 | 54 | 5 | 0.9 | 9.6 | 0.00 | 0.00 | 0.00 | 47 | 1014.2 |
| 20260504042234 | 54 | 293 | 0.0 | 6.1 | 0.00 | 0.00 | 0.00 | 47 | 1014.4 |
| 20260504041730 | 54 | 300 | 6.1 | 14.8 | 0.00 | 0.00 | 0.00 | 46 | 1014.3 |
| 20260504041226 | 54 | 248 | 3.5 | 8.7 | 0.00 | 0.00 | 0.00 | 46 | 1014.4 |
| 20260504040722 | 54 | 276 | 6.1 | 9.6 | 0.00 | 0.00 | 0.00 | 45 | 1014.2 |
| 20260504040220 | 54 | 276 | 2.6 | 9.6 | 0.00 | 0.00 | 0.00 | 46 | 1014.2 |
| 20260504035716 | 54 | 242 | 2.6 | 7.0 | 0.00 | 0.00 | 0.00 | 45 | 1014.1 |
| 20260504035213 | 54 | 251 | 3.5 | 8.7 | 0.00 | 0.00 | 0.00 | 45 | 1014.1 |
| 20260504034711 | 54 | 266 | 0.0 | 4.3 | 0.00 | 0.00 | 0.00 | 45 | 1014.1 |
| 20260504034208 | 55 | 293 | 1.7 | 7.0 | 0.00 | 0.00 | 0.00 | 45 | 1014.1 |
| 20260504033705 | 55 | 291 | 2.6 | 12.2 | 0.00 | 0.00 | 0.00 | 44 | 1014.2 |
| 20260504033202 | 55 | 255 | 5.2 | 8.7 | 0.00 | 0.00 | 0.00 | 44 | 1014.2 |
| 20260504032659 | 55 | 227 | 1.7 | 6.1 | 0.00 | 0.00 | 0.00 | 44 | 1014.0 |
| 20260504032156 | 55 | 281 | 6.1 | 12.2 | 0.00 | 0.00 | 0.00 | 43 | 1014.0 |
| 20260504031653 | 55 | 273 | 1.7 | 10.4 | 0.00 | 0.00 | 0.00 | 43 | 1013.9 |
| 20260504031149 | 55 | 332 | 2.6 | 9.6 | 0.00 | 0.00 | 0.00 | 43 | 1014.0 |
| 20260504030646 | 55 | 323 | 3.5 | 7.8 | 0.00 | 0.00 | 0.00 | 43 | 1014.0 |
| 20260504030143 | 55 | 323 | 2.6 | 5.2 | 0.00 | 0.00 | 0.00 | 43 | 1014.0 |
| 20260504025640 | 56 | 168 | 0.9 | 7.8 | 0.00 | 0.00 | 0.00 | 42 | 1013.9 |
| 20260504025137 | 56 | 264 | 5.2 | 13.9 | 0.00 | 0.00 | 0.00 | 41 | 1013.8 |
| 20260504024634 | 56 | 38 | 1.7 | 7.0 | 0.00 | 0.00 | 0.00 | 41 | 1013.9 |
| 20260504024130 | 56 | 271 | 3.5 | 10.4 | 0.00 | 0.00 | 0.00 | 41 | 1014.1 |
| 20260504023627 | 56 | 289 | 3.5 | 9.6 | 0.00 | 0.00 | 0.00 | 41 | 1014.2 |
| 20260504023123 | 56 | 248 | 3.5 | 7.0 | 0.00 | 0.00 | 0.00 | 41 | 1013.9 |
| 20260504022620 | 56 | 292 | 2.6 | 7.8 | 0.00 | 0.00 | 0.00 | 41 | 1014.0 |
| 20260504022116 | 56 | 293 | 1.7 | 5.2 | 0.00 | 0.00 | 0.00 | 41 | 1014.1 |
| 20260504021614 | 56 | 147 | 1.7 | 5.2 | 0.00 | 0.00 | 0.00 | 41 | 1014.0 |
| 20260504021110 | 56 | 269 | 0.0 | 6.1 | 0.00 | 0.00 | 0.00 | 41 | 1014.2 |
| 20260504020607 | 56 | 251 | 2.6 | 6.1 | 0.00 | 0.00 | 0.00 | 41 | 1014.0 |
| 20260504020103 | 56 | 269 | 0.0 | 4.3 | 0.00 | 0.00 | 0.00 | 40 | 1013.9 |
| 20260504015600 | 57 | 269 | 3.5 | 7.8 | 0.00 | 0.00 | 0.00 | 39 | 1013.9 |
| 20260504015056 | 56 | 266 | 1.7 | 6.1 | 0.00 | 0.00 | 0.00 | 40 | 1014.0 |
| 20260504014552 | 57 | 334 | 0.0 | 2.6 | 0.00 | 0.00 | 0.00 | 40 | 1013.7 |
| 20260504014050 | 57 | 271 | 1.7 | 7.0 | 0.00 | 0.00 | 0.00 | 40 | 1013.8 |
| 20260504013547 | 57 | 285 | 0.9 | 4.3 | 0.00 | 0.00 | 0.00 | 40 | 1013.9 |
| 20260504013044 | 57 | 279 | 3.5 | 6.1 | 0.00 | 0.00 | 0.00 | 40 | 1013.5 |
| 20260504012541 | 57 | 315 | 5.2 | 8.7 | 0.00 | 0.00 | 0.00 | 39 | 1013.4 |
| 20260504012039 | 57 | 276 | 3.5 | 7.8 | 0.00 | 0.00 | 0.00 | 38 | 1013.6 |
| 20260504011536 | 57 | 331 | 1.7 | 3.5 | 0.00 | 0.00 | 0.00 | 37 | 1013.8 |
| 20260504011032 | 57 | 260 | 1.7 | 9.6 | 0.00 | 0.00 | 0.00 | 36 | 1013.6 |
| 20260504010527 | 57 | 322 | 1.7 | 4.3 | 0.00 | 0.00 | 0.00 | 37 | 1013.4 |
| 20260504010024 | 57 | 242 | 2.6 | 7.8 | 0.00 | 0.00 | 0.00 | 36 | 1013.4 |
| 20260504005520 | 57 | 331 | 3.5 | 7.0 | 0.00 | 0.00 | 0.00 | 37 | 1013.3 |
| 20260504005018 | 57 | 273 | 0.0 | 6.1 | 0.00 | 0.00 | 0.00 | 38 | 1013.3 |
| 20260504004516 | 57 | 342 | 0.0 | 3.5 | 0.00 | 0.00 | 0.00 | 40 | 1013.3 |
| 20260504004013 | 57 | 279 | 0.0 | 3.5 | 0.00 | 0.00 | 0.00 | 41 | 1013.3 |
| 20260504003509 | 58 | 280 | 1.7 | 6.1 | 0.00 | 0.00 | 0.00 | 40 | 1013.2 |
| 20260504003006 | 58 | 274 | 1.7 | 7.8 | 0.00 | 0.00 | 0.00 | 39 | 1013.0 |
| 20260504002503 | 58 | 307 | 3.5 | 9.6 | 0.00 | 0.00 | 0.00 | 36 | 1012.9 |
| 20260504002000 | 58 | 314 | 2.6 | 7.8 | 0.00 | 0.00 | 0.00 | 37 | 1012.9 |
| 20260504001457 | 59 | 311 | 8.7 | 9.6 | 0.00 | 0.00 | 0.00 | 36 | 1012.7 |
| 20260504000953 | 59 | 324 | 4.3 | 13.0 | 0.00 | 0.00 | 0.00 | 37 | 1012.7 |
| 20260504000451 | 59 | 275 | 6.1 | 7.8 | 0.00 | 0.00 | 0.00 | 38 | 1012.7 |
| 20260503235948 | 59 | 283 | 0.9 | 7.8 | 0.00 | 0.00 | 0.00 | 37 | 1012.4 |
| 20260503235446 | 59 | 281 | 3.5 | 5.2 | 0.00 | 0.00 | 0.00 | 34 | 1012.6 |
| 20260503234943 | 59 | 311 | 2.6 | 4.3 | 0.00 | 0.00 | 0.00 | 35 | 1012.6 |
| 20260503234440 | 60 | 293 | 3.5 | 6.1 | 0.00 | 0.00 | 0.00 | 34 | 1012.5 |
| 20260503233938 | 60 | 296 | 1.7 | 6.1 | 0.00 | 0.00 | 0.00 | 33 | 1012.2 |
| 20260503233434 | 60 | 308 | 5.2 | 7.0 | 0.00 | 0.00 | 0.00 | 33 | 1012.4 |
| 20260503232931 | 61 | 302 | 2.6 | 7.8 | 0.00 | 0.00 | 0.00 | 32 | 1012.2 |
| 20260503232428 | 61 | 287 | 8.7 | 10.4 | 0.00 | 0.00 | 0.00 | 31 | 1012.2 |
| 20260503231926 | 61 | 316 | 4.3 | 9.6 | 0.00 | 0.00 | 0.00 | 31 | 1012.3 |
| 20260503231423 | 61 | 299 | 7.0 | 13.9 | 0.00 | 0.00 | 0.00 | 30 | 1012.3 |
| 20260503230919 | 61 | 333 | 5.2 | 9.6 | 0.00 | 0.00 | 0.00 | 30 | 1012.0 |
| 20260503230416 | 61 | 325 | 1.7 | 14.8 | 0.00 | 0.00 | 0.00 | 29 | 1012.1 |
| 20260503225914 | 61 | 343 | 2.6 | 13.0 | 0.00 | 0.00 | 0.00 | 29 | 1012.1 |
| 20260503225410 | 61 | 330 | 2.6 | 11.3 | 0.00 | 0.00 | 0.00 | 29 | 1011.9 |
| 20260503224906 | 61 | 301 | 4.3 | 13.0 | 0.00 | 0.00 | 0.00 | 29 | 1012.0 |
| 20260503224403 | 61 | 350 | 1.7 | 10.4 | 0.00 | 0.00 | 0.00 | 29 | 1012.1 |
| 20260503223901 | 62 | 305 | 5.2 | 10.4 | 0.00 | 0.00 | 0.00 | 28 | 1012.0 |
| 20260503223359 | 61 | 297 | 12.2 | 19.1 | 0.00 | 0.00 | 0.00 | 28 | 1012.1 |
| 20260503222854 | 61 | 324 | 8.7 | 17.4 | 0.00 | 0.00 | 0.00 | 28 | 1011.9 |
| 20260503222353 | 61 | 341 | 6.1 | 23.5 | 0.00 | 0.00 | 0.00 | 28 | 1011.7 |
| 20260503221850 | 62 | 289 | 7.0 | 17.4 | 0.00 | 0.00 | 0.00 | 28 | 1011.7 |
| 20260503221349 | 62 | 316 | 4.3 | 11.3 | 0.00 | 0.00 | 0.00 | 28 | 1011.8 |
| 20260503220844 | 61 | 88 | 0.9 | 11.3 | 0.00 | 0.00 | 0.00 | 28 | 1011.7 |
| 20260503220341 | 61 | 276 | 6.1 | 18.2 | 0.00 | 0.00 | 0.00 | 27 | 1012.0 |
| 20260503215838 | 62 | 316 | 13.0 | 17.4 | 0.00 | 0.00 | 0.00 | 27 | 1012.1 |
| 20260503215335 | 62 | 286 | 7.0 | 16.5 | 0.00 | 0.00 | 0.00 | 27 | 1012.1 |
| 20260503214833 | 61 | 304 | 7.0 | 13.0 | 0.00 | 0.00 | 0.00 | 28 | 1011.9 |
| 20260503214330 | 60 | 303 | 11.3 | 30.4 | 0.00 | 0.00 | 0.00 | 28 | 1011.9 |
| 20260503213827 | 61 | 307 | 14.8 | 20.0 | 0.00 | 0.00 | 0.00 | 28 | 1012.0 |
| 20260503213325 | 62 | 310 | 13.0 | 14.8 | 0.00 | 0.00 | 0.00 | 27 | 1012.0 |
| 20260503212822 | 61 | 301 | 3.5 | 22.6 | 0.00 | 0.00 | 0.00 | 29 | 1011.9 |
| 20260503212320 | 61 | 303 | 6.1 | 16.5 | 0.00 | 0.00 | 0.00 | 29 | 1011.9 |
| 20260503211817 | 61 | 317 | 8.7 | 22.6 | 0.00 | 0.00 | 0.00 | 28 | 1011.9 |
| 20260503211313 | 61 | 284 | 10.4 | 14.8 | 0.00 | 0.00 | 0.00 | 29 | 1011.9 |
| 20260503210813 | 61 | 291 | 2.6 | 13.0 | 0.00 | 0.00 | 0.00 | 30 | 1011.9 |
| 20260503210311 | 61 | 313 | 7.8 | 18.2 | 0.00 | 0.00 | 0.00 | 30 | 1011.6 |
| 20260503205806 | 61 | 304 | 6.1 | 15.6 | 0.00 | 0.00 | 0.00 | 29 | 1011.7 |
| 20260503205304 | 61 | 307 | 4.3 | 16.5 | 0.00 | 0.00 | 0.00 | 29 | 1011.8 |
| 20260503204759 | 61 | 305 | 20.9 | 22.6 | 0.00 | 0.00 | 0.00 | 29 | 1011.9 |
| 20260503204257 | 61 | 280 | 4.3 | 15.6 | 0.00 | 0.00 | 0.00 | 30 | 1011.7 |
| 20260503203754 | 60 | 326 | 7.8 | 17.4 | 0.00 | 0.00 | 0.00 | 30 | 1011.6 |
| 20260503203251 | 62 | 318 | 7.0 | 16.5 | 0.00 | 0.00 | 0.00 | 29 | 1011.8 |
| 20260503202748 | 61 | 310 | 13.0 | 20.0 | 0.00 | 0.00 | 0.00 | 30 | 1011.9 |
| 20260503202246 | 60 | 300 | 9.6 | 18.2 | 0.00 | 0.00 | 0.00 | 30 | 1011.9 |
| 20260503201744 | 61 | 291 | 3.5 | 13.0 | 0.00 | 0.00 | 0.00 | 30 | 1012.0 |
| 20260503201241 | 60 | 277 | 13.0 | 22.6 | 0.00 | 0.00 | 0.00 | 30 | 1012.0 |
| 20260503200738 | 60 | 322 | 6.1 | 19.1 | 0.00 | 0.00 | 0.00 | 30 | 1012.2 |
| 20260503200234 | 59 | 26 | 4.3 | 21.7 | 0.00 | 0.00 | 0.00 | 30 | 1012.1 |
| 20260503195731 | 59 | 312 | 12.2 | 20.0 | 0.00 | 0.00 | 0.00 | 31 | 1012.1 |
| 20260503195228 | 59 | 295 | 13.0 | 20.9 | 0.00 | 0.00 | 0.00 | 31 | 1012.2 |